McCook, NE

9:01 PM CST on December 08, 2019 (GMT -0600)
McCook Municipal

Weather History for KMCK - September, 2019

Change the Weather History Date:

Tuesday, September 17, 2019

  Actual Average Record
Temperature  
Mean Temperature 83 °F 64 °F  
Max Temperature 96 °F 79 °F 100 °F (1927)
Min Temperature 70 °F 49 °F 36 °F (1916)
Cooling Degree Days 18    
Growing Degree Days 33 (Base 50)    
Moisture  
Dew Point 58 °F    
Average Humidity 46    
Maximum Humidity 68    
Minimum Humidity 25    
Precipitation  
Precipitation 0.00 in 0.05 in 0.69 in (1975)
Month to date precipitation 0.51 0.83  
Year to date precipitation 17.84 18.54  
Sea Level Pressure  
Sea Level Pressure 29.74 in    
Wind  
Wind Speed 16 mph ()    
Max Wind Speed 25 mph    
Max Gust Speed 37 mph    
Visibility 10.0 miles    
Events      
T = Trace of Precipitation, MM = Missing Value Source: Averaged Metar Reports

Daily Weather History Graph

Daily Weather History Graph

Search for Another Location

Airport or City:

Astronomy

Sep. 17, 2019 Rise Set
Actual Time 7:24 AM CDT 7:48 PM CDT
Civil Twilight 6:57 AM CDT 8:15 PM CDT
Nautical Twilight 6:25 AM CDT 8:47 PM CDT
Astronomical Twilight 5:52 AM CDT 9:19 PM CDT
Moon 9:51 PM CDT (9/17) 10:31 AM CDT (9/17)
Length of Visible Light 13h 17m
Length of Day
12h 23m
Waning Gibbous, 89% of the Moon is Illuminated
Sep 17
Waning Gibbous
Sep 21
Last Quarter
Sep 28
New
Oct 5
First Quarter
Oct 13
Full

Hourly Weather History & Observations

Time (CDT) Temp. Heat Index Dew Point Humidity Pressure Visibility Wind Dir Wind Speed Gust Speed Precip Events Conditions
12:53 AM 75.0 °F - 55.9 °F 51% 29.79 in 10.0 mi South 16.1 mph 26.5 mph N/A   Clear
2:53 AM 73.9 °F - 57.0 °F 55% 29.78 in 10.0 mi South 17.3 mph 29.9 mph N/A   Clear
3:53 AM 73.0 °F - 57.9 °F 59% 29.78 in 10.0 mi South 16.1 mph 25.3 mph N/A   Clear
4:53 AM 73.9 °F - 59.0 °F 59% 29.77 in 10.0 mi South 19.6 mph 29.9 mph N/A   Mostly Cloudy
5:53 AM 72.0 °F - 59.0 °F 64% 29.77 in 10.0 mi South 16.1 mph 27.6 mph N/A   Clear
6:53 AM 71.1 °F - 60.1 °F 68% 29.77 in 10.0 mi South 21.9 mph 32.2 mph N/A   Clear
7:53 AM 71.1 °F - 60.1 °F 68% 29.79 in 10.0 mi South 15.0 mph 28.8 mph N/A   Clear
8:53 AM 73.0 °F - 60.1 °F 64% 29.79 in 10.0 mi South 16.1 mph 28.8 mph N/A   Clear
9:53 AM 77.0 °F - 60.1 °F 56% 29.78 in 10.0 mi South 17.3 mph 29.9 mph N/A   Clear
10:53 AM 81.0 °F 81.3 °F 59.0 °F 47% 29.78 in 10.0 mi South 23.0 mph 35.7 mph N/A   Clear
11:53 AM 84.0 °F 83.8 °F 59.0 °F 43% 29.77 in 10.0 mi South 18.4 mph 32.2 mph N/A   Clear
12:53 PM 88.0 °F 87.6 °F 60.1 °F 39% 29.74 in 10.0 mi South 21.9 mph 31.1 mph N/A   Clear
1:53 PM 90.0 °F 89.1 °F 59.0 °F 35% 29.72 in 10.0 mi South 20.7 mph 35.7 mph N/A   Clear
2:53 PM 90.0 °F 88.6 °F 57.0 °F 33% 29.69 in 10.0 mi South 23.0 mph 33.4 mph N/A   Clear
3:53 PM 93.9 °F 91.4 °F 53.1 °F 25% 29.67 in 10.0 mi South 19.6 mph 32.2 mph N/A   Clear
4:53 PM 95.0 °F 93.0 °F 55.0 °F 26% 29.66 in 10.0 mi South 25.3 mph 36.8 mph N/A   Clear
5:53 PM 91.0 °F 88.9 °F 55.0 °F 29% 29.66 in 10.0 mi South 16.1 mph 28.8 mph N/A   Clear
6:53 PM 89.1 °F 87.3 °F 55.9 °F 32% 29.67 in 10.0 mi South 13.8 mph 26.5 mph N/A   Clear
7:53 PM 87.1 °F 85.3 °F 55.0 °F 33% 29.69 in 10.0 mi South 12.7 mph 26.5 mph N/A   Clear
8:53 PM 82.9 °F 82.1 °F 55.9 °F 39% 29.70 in 10.0 mi South 12.7 mph 23.0 mph N/A   Clear
9:53 PM 80.1 °F 80.4 °F 57.0 °F 45% 29.72 in 10.0 mi South 17.3 mph 26.5 mph N/A   Clear
10:53 PM 79.0 °F - 57.9 °F 48% 29.72 in 10.0 mi South 16.1 mph 25.3 mph N/A   Clear
11:53 PM 78.1 °F - 57.9 °F 50% 29.73 in 10.0 mi South 19.6 mph 27.6 mph N/A   Clear